Regional Weather Roundup
Issued by NWS Columbia, SC

Home | Current Version | Previous Version | Text Only | Print | Product List | Glossary On
Versions: 1 2 3 4 5 6 7 8 9 10 11 12 13 14 15 16 17 18 19 20 21 22 23 24 25 26 27 28 29 30 31 32 33 34 35 36 37 38 39 40 41 42 43 44 45 46 47 48 49 50
000
ASUS42 KCAE 230510
RWRCAE
REGIONAL WEATHER ROUNDUP
NATIONAL WEATHER SERVICE COLUMBIA SC
1200 AM EST THU FEB 23 2017

NOTE: "FAIR" INDICATES FEW OR NO CLOUDS BELOW 12,000 FEET WITH NO
SIGNIFICANT WEATHER AND/OR OBSTRUCTIONS TO VISIBILITY.

NOT ALL STATIONS ARE QUALITY CONTROLLED BY THE NATIONAL
WEATHER SERVICE. USE DATA WITH CAUTION...ESPECIALLY
DEWPOINT OBSERVATIONS.

SCZ001>056-GAZ040-063>065-077-230600-
...UPSTATE SOUTH CAROLINA...

CITY           SKY/WX    TMP DP  RH WIND       PRES   REMARKS
ANDERSON       CLOUDY    59  53  80 NE7       29.91F
LIBERTY        PTCLDY    56  53  90 E5        29.92S
SPARTANBURG    CLOUDY    55  52  88 NE3       29.92F
CLEMSON        CLOUDY    60  54  80 CALM      29.93S
GREENVILLE     MOCLDY    58  53  84 N7        29.93F
GREENWOOD      CLOUDY    56  53  90 N3        29.92S
GREER          CLOUDY    56  52  86 N5        29.92F
ROCK HILL      MOCLDY    57  54  89 NE3       29.93F
CHESTER        CLOUDY    59  54  82 NE5       29.93S
LAURENS        CLOUDY    57  54  88 NE3       29.91F


...CENTRAL SOUTH CAROLINA...

CITY           SKY/WX    TMP DP  RH WIND       PRES   REMARKS
COLUMBIA APT   CLOUDY    64  55  72 E6        29.88F
COLUMBIA OWENS MOCLDY    62  55  77 CALM      29.90S
MCENTIRE ANGB  MOCLDY    60  56  87 CALM      29.89F
ORANGEBURG     CLOUDY    58  56  93 NE3       29.88F
SUMTER SHAW    CLOUDY    60  53  80 NE3       29.87F
AIKEN          FAIR      59  54  82 NE5       29.92S
BARNWELL       FAIR      64  61  88 E5        29.87F
MANNING        FAIR      55  39  54 MISG      29.88F
CAMDEN         FAIR      61  55  82 CALM      29.90F
LANCASTER      CLOUDY    63  55  77 CALM      29.92F
WINNSBORO      CLOUDY    61  55  82 E3        29.91S


...EASTERN AND COASTAL SOUTH CAROLINA...

CITY           SKY/WX    TMP DP  RH WIND       PRES   REMARKS
MYRTLE BEACH   CLOUDY    61  56  83 NE6       29.90
N MYRTLE BCH   MOCLDY    58  55  90 NE6       29.90F
CONWAY         FAIR      55  52  88 CALM      29.90F
MARION         FAIR      57  52  82 E3        29.90F
HARTSVILLE     FAIR      57  52  82 E3        29.90F
FLORENCE       CLOUDY    59  54  83 E5        29.90F
DARLINGTON     CLOUDY    57  54  89 NE3       29.91F
CHARLESTON APT PTCLDY    61  57  87 NE6       29.86F
MOUNT PLEASANT FAIR      61  57  88 CALM      29.87F
WALTERBORO     PTCLDY    61  57  88 E7        29.87F
BEAUFORT       CLOUDY    64  61  90 NE7       29.84F


...EASTERN GEORGIA...

CITY           SKY/WX    TMP DP  RH WIND       PRES   REMARKS
AUGUSTA BUSH F PTCLDY    61  57  87 E3        29.86F
AUGUSTA DANIEL MOCLDY    64  56  75 NE5       29.88S
THOMSON        MOCLDY    61  61 100 CALM      29.93S
WASHINGTON     FAIR      63  61  94 N3        29.89S
CLAXTON        FAIR     N/A N/A N/A NE5       29.84S
SYLVANIA       MOCLDY   N/A N/A N/A E5        29.86S
STATESBORO     CLOUDY    64  64 100 E3        29.85S
SAVANNAH       CLOUDY    62  59  90 NE7       29.83F


...SOUTHERN NORTH CAROLINA...

CITY           SKY/WX    TMP DP  RH WIND       PRES   REMARKS
CHARLOTTE      CLOUDY    58  53  84 N5        29.93F
MONROE         CLOUDY    59  53  80 NE5       29.92S
WADESBORO      CLOUDY    57  52  81 CALM      29.92S
ROCKINGHAM     CLOUDY    58  54  84 CALM      29.92F
RUTHERFORDTON  CLOUDY    54  54 100 NW3       29.94F
ASHEVILLE      CLOUDY    53  50  89 CALM      29.95F FOG

$$



USA.gov is the U.S. government's official web portal to all federal, state and local government web resources and services.